TRA52X LIPQ-EHRD

Flight info

Callsign TRA52X
Flight time 1h 35m
Altitude 40000
Route LUPIN P125 TIBRO DCT URAVA DCT ARNOS DCT EVAXI DCT OBEDI DCT SIMBA DCT GASKA DCT MAPOX DCT BIGGE L604 RELBI L602 RKN
Aircraft B738/M-SDE2E3FGHIJ1P2RWXY/LB1

Departure

Time 2026-04-25 13:07
Airport Trieste Airport (LIPQ)

Arrival

Time 2026-04-25 14:42
Airport Rotterdam The Hague Airport (EHRD)
Time Latitude Longitude Altitude Speed Heading
2026-04-25 12:14 45.82188 13.48303 46 ft 0 kts 170°
2026-04-25 13:02 45.82184 13.48301 46 ft 1 kts 195°
2026-04-25 13:02 45.82183 13.48294 44 ft 1 kts 253°
2026-04-25 13:02 45.82189 13.48287 44 ft 2 kts 320°
2026-04-25 13:03 45.82206 13.48284 44 ft 4 kts 352°
2026-04-25 13:03 45.82238 13.48284 46 ft 5 kts 22°
2026-04-25 13:03 45.82259 13.48327 46 ft 5 kts 73°
2026-04-25 13:03 45.82266 13.48381 43 ft 5 kts 80°
2026-04-25 13:04 45.82272 13.48433 46 ft 5 kts 80°
2026-04-25 13:04 45.82279 13.48485 46 ft 5 kts 80°
2026-04-25 13:04 45.82286 13.48535 46 ft 5 kts 68°
2026-04-25 13:04 45.82312 13.48568 46 ft 5 kts 21°
2026-04-25 13:05 45.82348 13.48573 46 ft 5 kts 359°
2026-04-25 13:05 45.82390 13.48572 46 ft 7 kts
2026-04-25 13:05 45.82457 13.48573 46 ft 13 kts
2026-04-25 13:05 45.82560 13.48574 46 ft 16 kts
2026-04-25 13:06 45.82668 13.48576 46 ft 15 kts
2026-04-25 13:06 45.82760 13.48571 46 ft 11 kts 338°
2026-04-25 13:06 45.82777 13.48487 45 ft 11 kts 270°
2026-04-25 13:06 45.82778 13.48109 45 ft 72 kts 270°
2026-04-25 13:07 45.82784 13.47074 47 ft 133 kts 270°
2026-04-25 13:07 45.82801 13.45547 253 ft 160 kts 269°
2026-04-25 13:07 45.82814 13.43938 895 ft 165 kts 267°
2026-04-25 13:07 45.82818 13.42305 1633 ft 164 kts 268°
2026-04-25 13:08 45.82847 13.40577 2091 ft 187 kts 267°
2026-04-25 13:08 45.82844 13.38567 2330 ft 215 kts 268°
2026-04-25 13:08 45.82839 13.36336 2745 ft 229 kts 269°
2026-04-25 13:08 45.82838 13.33972 3142 ft 248 kts 269°
2026-04-25 13:09 45.82845 13.31462 3846 ft 256 kts 270°
2026-04-25 13:09 45.83272 13.29002 4640 ft 259 kts 302°
2026-04-25 13:09 45.84627 13.27476 5845 ft 245 kts 340°
2026-04-25 13:09 45.86327 13.27388 6688 ft 253 kts 16°
2026-04-25 13:10 45.87795 13.28799 7381 ft 263 kts 52°
2026-04-25 13:10 45.88429 13.31247 8157 ft 269 kts 88°
2026-04-25 13:10 45.88031 13.33871 8917 ft 274 kts 114°
2026-04-25 13:10 45.87169 13.36321 9748 ft 277 kts 119°
2026-04-25 13:11 45.86243 13.38760 10495 ft 281 kts 118°
2026-04-25 13:11 45.85334 13.41248 11286 ft 284 kts 117°
2026-04-25 13:11 45.84791 13.43968 12004 ft 288 kts 88°
2026-04-25 13:11 45.85304 13.46695 12836 ft 286 kts 57°
2026-04-25 13:12 45.86630 13.48785 13614 ft 286 kts 30°
2026-04-25 13:12 45.88454 13.49850 14369 ft 284 kts
2026-04-25 13:12 45.90416 13.50190 15130 ft 286 kts
2026-04-25 13:12 45.91061 13.50263 15381 ft 287 kts
2026-04-25 13:13 45.94431 13.50570 16692 ft 292 kts
2026-04-25 13:13 45.96466 13.50750 17475 ft 296 kts
2026-04-25 13:13 45.98530 13.50942 18271 ft 299 kts 360°
2026-04-25 13:13 46.00618 13.51144 18965 ft 302 kts
2026-04-25 13:14 46.02729 13.51356 19618 ft 307 kts
2026-04-25 13:14 46.04871 13.51579 20263 ft 311 kts 360°
2026-04-25 13:14 46.07047 13.51807 20927 ft 315 kts 360°
2026-04-25 13:14 46.09249 13.52039 21598 ft 319 kts 359°
2026-04-25 13:15 46.11475 13.52276 22248 ft 323 kts 360°
2026-04-25 13:15 46.13708 13.52514 22848 ft 329 kts 360°
2026-04-25 13:15 46.16028 13.52763 23529 ft 332 kts 359°
2026-04-25 13:15 46.18344 13.53013 24055 ft 335 kts 359°
2026-04-25 13:16 46.20682 13.53266 24595 ft 338 kts 360°
2026-04-25 13:16 46.23001 13.53517 25137 ft 340 kts 360°
2026-04-25 13:16 46.25373 13.53773 25687 ft 343 kts 360°
2026-04-25 13:16 46.27763 13.54032 26220 ft 346 kts 360°
2026-04-25 13:17 46.30169 13.54292 26733 ft 349 kts 360°
2026-04-25 13:17 46.32599 13.54555 27233 ft 352 kts 360°
2026-04-25 13:17 46.35056 13.54822 27755 ft 355 kts 360°
2026-04-25 13:17 46.37529 13.55092 28286 ft 358 kts 360°
2026-04-25 13:18 46.40019 13.55362 28779 ft 361 kts 360°
2026-04-25 13:18 46.42535 13.55636 29258 ft 364 kts 360°
2026-04-25 13:18 46.45075 13.55912 29733 ft 367 kts 360°
2026-04-25 13:18 46.47625 13.56191 30214 ft 369 kts 360°
2026-04-25 13:19 46.50198 13.56472 30583 ft 372 kts 360°
2026-04-25 13:19 46.52784 13.56753 30975 ft 374 kts 359°
2026-04-25 13:19 46.54504 13.56811 31168 ft 374 kts 353°
2026-04-25 13:19 46.56265 13.56565 31206 ft 379 kts 346°
2026-04-25 13:20 46.59767 13.55771 31344 ft 391 kts 347°
2026-04-25 13:20 46.62496 13.55171 31436 ft 402 kts 347°
2026-04-25 13:20 46.68168 13.53975 31610 ft 421 kts 347°
2026-04-25 13:21 46.74090 13.52746 31774 ft 439 kts 347°
2026-04-25 13:21 46.80197 13.51290 31923 ft 450 kts 343°
2026-04-25 13:22 46.83270 13.50270 32047 ft 455 kts 342°
2026-04-25 13:22 46.86360 13.49170 32239 ft 458 kts 342°
2026-04-25 13:22 46.89459 13.48054 32558 ft 458 kts 341°
2026-04-25 13:23 46.95601 13.45885 33590 ft 450 kts 342°
2026-04-25 13:23 46.98649 13.44826 33896 ft 451 kts 342°
2026-04-25 13:23 47.01701 13.43771 34142 ft 451 kts 342°
2026-04-25 13:23 47.04760 13.42717 34431 ft 451 kts 342°
2026-04-25 13:24 47.07806 13.41668 34782 ft 449 kts 342°
2026-04-25 13:24 47.10836 13.40625 35133 ft 447 kts 342°
2026-04-25 13:24 47.13866 13.39578 35399 ft 447 kts 342°
2026-04-25 13:24 47.16885 13.38533 35751 ft 445 kts 342°
2026-04-25 13:25 47.19897 13.37489 36109 ft 443 kts 342°
2026-04-25 13:25 47.22887 13.36452 36470 ft 441 kts 342°
2026-04-25 13:25 47.25872 13.35414 36800 ft 441 kts 342°
2026-04-25 13:25 47.28853 13.34377 37134 ft 440 kts 342°
2026-04-25 13:26 47.31825 13.33342 37466 ft 438 kts 342°
2026-04-25 13:26 47.34788 13.32314 37789 ft 437 kts 342°
2026-04-25 13:26 47.37743 13.31300 38132 ft 434 kts 342°
2026-04-25 13:26 47.40551 13.30341 38409 ft 434 kts 342°
2026-04-25 13:27 47.43455 13.29347 38593 ft 435 kts 342°
2026-04-25 13:27 47.46402 13.28336 38820 ft 435 kts 342°
2026-04-25 13:27 47.49347 13.27325 39057 ft 434 kts 342°
2026-04-25 13:27 47.52283 13.26315 39272 ft 433 kts 342°
2026-04-25 13:28 47.55221 13.25303 39431 ft 434 kts 342°
2026-04-25 13:28 47.61139 13.23258 39783 ft 434 kts 342°
2026-04-25 13:28 47.64077 13.22242 39962 ft 433 kts 342°
2026-04-25 13:29 47.67014 13.21224 40061 ft 434 kts 342°
2026-04-25 13:29 47.72877 13.19188 40074 ft 435 kts 342°
2026-04-25 13:30 47.81684 13.16126 40077 ft 431 kts 342°
2026-04-25 13:31 47.90415 13.13077 40055 ft 429 kts 342°
2026-04-25 13:31 47.96211 13.11046 40052 ft 428 kts 342°
2026-04-25 13:32 48.02002 13.09013 40055 ft 427 kts 342°
2026-04-25 13:32 48.07797 13.06973 40063 ft 428 kts 342°
2026-04-25 13:33 48.13597 13.04927 40066 ft 429 kts 342°
2026-04-25 13:33 48.19414 13.02862 40062 ft 429 kts 340°
2026-04-25 13:34 48.24814 12.99322 40064 ft 421 kts 324°
2026-04-25 13:34 48.29409 12.93979 40063 ft 418 kts 317°
2026-04-25 13:35 48.33871 12.88423 40061 ft 420 kts 317°
2026-04-25 13:35 48.38380 12.82829 40068 ft 421 kts 317°
2026-04-25 13:36 48.42910 12.77240 40070 ft 422 kts 318°
2026-04-25 13:36 48.47452 12.71643 40063 ft 422 kts 318°
2026-04-25 13:37 48.51998 12.66033 40068 ft 423 kts 318°
2026-04-25 13:37 48.56545 12.60406 40071 ft 423 kts 318°
2026-04-25 13:38 48.61086 12.54774 40065 ft 422 kts 318°
2026-04-25 13:38 48.65625 12.49131 40068 ft 422 kts 318°
2026-04-25 13:39 48.70154 12.43485 40063 ft 421 kts 318°
2026-04-25 13:39 48.74669 12.37844 40072 ft 421 kts 318°
2026-04-25 13:40 48.79178 12.32196 40069 ft 420 kts 318°
2026-04-25 13:40 48.83679 12.26545 40071 ft 420 kts 318°
2026-04-25 13:41 48.88171 12.20892 40070 ft 419 kts 318°
2026-04-25 13:41 48.92653 12.15237 40073 ft 419 kts 318°
2026-04-25 13:42 48.97131 12.09574 40077 ft 418 kts 318°
2026-04-25 13:42 49.01602 12.03906 40077 ft 418 kts 318°
2026-04-25 13:43 49.06067 11.98232 40080 ft 418 kts 318°
2026-04-25 13:43 49.10502 11.92584 40072 ft 418 kts 318°
2026-04-25 13:44 49.14957 11.86895 40074 ft 418 kts 318°
2026-04-25 13:44 49.19411 11.81193 40074 ft 417 kts 318°
2026-04-25 13:45 49.23863 11.75481 40071 ft 417 kts 318°
2026-04-25 13:45 49.28306 11.69767 40074 ft 417 kts 318°
2026-04-25 13:46 49.32746 11.64042 40074 ft 417 kts 318°
2026-04-25 13:46 49.37181 11.58309 40073 ft 417 kts 318°
2026-04-25 13:47 49.41617 11.52561 40067 ft 418 kts 317°
2026-04-25 13:47 49.46058 11.46793 40074 ft 418 kts 317°
2026-04-25 13:48 49.50498 11.41012 40074 ft 418 kts 317°
2026-04-25 13:48 49.54939 11.35215 40077 ft 419 kts 317°
2026-04-25 13:49 49.59380 11.29404 40075 ft 419 kts 317°
2026-04-25 13:49 49.63827 11.23570 40070 ft 420 kts 317°
2026-04-25 13:50 49.68268 11.17730 40077 ft 420 kts 317°
2026-04-25 13:50 49.72688 11.11903 40075 ft 421 kts 317°
2026-04-25 13:51 49.77134 11.06028 40077 ft 421 kts 317°
2026-04-25 13:51 49.81585 11.00129 40069 ft 421 kts 317°
2026-04-25 13:52 49.86031 10.94225 40072 ft 421 kts 317°
2026-04-25 13:52 49.90475 10.88307 40074 ft 421 kts 317°
2026-04-25 13:53 49.94914 10.82381 40076 ft 421 kts 317°
2026-04-25 13:53 49.99348 10.76447 40077 ft 420 kts 317°
2026-04-25 13:54 50.03772 10.70512 40073 ft 420 kts 317°
2026-04-25 13:54 50.08189 10.64570 40077 ft 419 kts 317°
2026-04-25 13:55 50.12595 10.58628 40081 ft 419 kts 317°
2026-04-25 13:55 50.16997 10.52677 40084 ft 418 kts 317°
2026-04-25 13:56 50.21385 10.46729 40085 ft 417 kts 317°
2026-04-25 13:56 50.25760 10.40784 40088 ft 417 kts 317°
2026-04-25 13:57 50.30125 10.34836 40080 ft 416 kts 317°
2026-04-25 13:57 50.34485 10.28880 40083 ft 415 kts 316°
2026-04-25 13:58 50.38384 10.22265 40089 ft 413 kts 309°
2026-04-25 13:58 50.42097 10.15399 40082 ft 413 kts 309°
2026-04-25 13:59 50.45806 10.08540 40086 ft 412 kts 309°
2026-04-25 13:59 50.49522 10.01692 40090 ft 412 kts 309°
2026-04-25 14:00 50.53238 9.94844 40099 ft 412 kts 309°
2026-04-25 14:00 50.56954 9.87981 40093 ft 412 kts 309°
2026-04-25 14:01 50.60685 9.81073 39767 ft 417 kts 309°
2026-04-25 14:01 50.62561 9.77590 39527 ft 415 kts 309°
2026-04-25 14:01 50.64420 9.74138 39287 ft 411 kts 309°
2026-04-25 14:01 50.66256 9.70722 39060 ft 408 kts 309°
2026-04-25 14:02 50.68091 9.67302 38832 ft 407 kts 309°
2026-04-25 14:02 50.69916 9.63896 38572 ft 406 kts 309°
2026-04-25 14:02 50.71713 9.60540 38293 ft 406 kts 309°
2026-04-25 14:03 50.75351 9.53730 37732 ft 405 kts 309°
2026-04-25 14:03 50.77166 9.50326 37460 ft 406 kts 309°
2026-04-25 14:03 50.78983 9.46913 37193 ft 406 kts 309°
2026-04-25 14:03 50.80802 9.43491 36939 ft 407 kts 309°
2026-04-25 14:04 50.82626 9.40056 36675 ft 409 kts 309°
2026-04-25 14:04 50.84460 9.36598 36420 ft 410 kts 309°
2026-04-25 14:04 50.86294 9.33135 36167 ft 412 kts 309°
2026-04-25 14:04 50.88139 9.29648 35914 ft 413 kts 309°
2026-04-25 14:05 50.89984 9.26154 35666 ft 414 kts 309°
2026-04-25 14:05 50.91831 9.22653 35421 ft 412 kts 309°
2026-04-25 14:05 50.93658 9.19186 35162 ft 408 kts 309°
2026-04-25 14:05 50.95467 9.15746 34916 ft 405 kts 309°
2026-04-25 14:06 50.97273 9.12309 34681 ft 406 kts 309°
2026-04-25 14:06 50.99076 9.08871 34450 ft 406 kts 309°
2026-04-25 14:06 51.00883 9.05421 34217 ft 406 kts 309°
2026-04-25 14:07 51.04527 8.98454 34112 ft 414 kts 309°
2026-04-25 14:07 51.08183 8.91441 34090 ft 408 kts 309°
2026-04-25 14:08 51.11176 8.85690 34103 ft 406 kts 309°
2026-04-25 14:08 51.14764 8.78751 34105 ft 406 kts 309°
2026-04-25 14:09 51.18311 8.71740 34112 ft 406 kts 309°
2026-04-25 14:09 51.21851 8.64711 34110 ft 407 kts 309°
2026-04-25 14:10 51.25394 8.57669 34115 ft 407 kts 309°
2026-04-25 14:10 51.28943 8.50605 34123 ft 408 kts 309°
2026-04-25 14:11 51.32487 8.43532 34125 ft 408 kts 309°
2026-04-25 14:11 51.36039 8.36466 34135 ft 407 kts 309°
2026-04-25 14:12 51.39595 8.29404 34132 ft 407 kts 309°
2026-04-25 14:12 51.43122 8.22375 34133 ft 407 kts 309°
2026-04-25 14:13 51.46662 8.15297 34134 ft 407 kts 309°
2026-04-25 14:13 51.50198 8.08208 34142 ft 407 kts 309°
2026-04-25 14:14 51.53726 8.01112 34148 ft 406 kts 308°
2026-04-25 14:14 51.57243 7.94018 34146 ft 406 kts 308°
2026-04-25 14:15 51.60758 7.86912 34152 ft 405 kts 308°
2026-04-25 14:15 51.64259 7.79812 34155 ft 405 kts 308°
2026-04-25 14:16 51.67754 7.72705 34156 ft 405 kts 308°
2026-04-25 14:16 51.71244 7.65589 34143 ft 405 kts 308°
2026-04-25 14:16 51.73003 7.61993 33558 ft 409 kts 308°
2026-04-25 14:17 51.74759 7.58402 32907 ft 406 kts 308°
2026-04-25 14:17 51.76499 7.54835 32221 ft 405 kts 308°
2026-04-25 14:17 51.78233 7.51278 31709 ft 400 kts 308°
2026-04-25 14:17 51.79946 7.47757 31178 ft 397 kts 308°
2026-04-25 14:18 51.81644 7.44264 30669 ft 393 kts 308°
2026-04-25 14:18 51.83320 7.40810 30171 ft 389 kts 308°
2026-04-25 14:18 51.84985 7.37375 29595 ft 386 kts 308°
2026-04-25 14:18 51.86628 7.33980 29086 ft 381 kts 308°
2026-04-25 14:19 51.88250 7.30624 28578 ft 377 kts 308°
2026-04-25 14:19 51.89860 7.27289 28079 ft 374 kts 308°
2026-04-25 14:19 51.91454 7.23985 27570 ft 371 kts 308°
2026-04-25 14:19 51.93032 7.20707 27080 ft 368 kts 308°
2026-04-25 14:20 51.94601 7.17445 26577 ft 366 kts 308°
2026-04-25 14:20 51.95635 7.15291 26259 ft 364 kts 308°
2026-04-25 14:20 51.97709 7.10968 25614 ft 362 kts 308°
2026-04-25 14:20 51.99248 7.07757 25139 ft 360 kts 308°
2026-04-25 14:21 52.00785 7.04545 24661 ft 359 kts 308°
2026-04-25 14:21 52.02310 7.01353 24188 ft 358 kts 308°
2026-04-25 14:21 52.03835 6.98157 23710 ft 357 kts 307°
2026-04-25 14:21 52.05357 6.94964 23144 ft 357 kts 307°
2026-04-25 14:22 52.06869 6.91789 22633 ft 355 kts 307°
2026-04-25 14:22 52.08373 6.88628 22261 ft 350 kts 307°
2026-04-25 14:22 52.09859 6.85499 22008 ft 356 kts 307°
2026-04-25 14:22 52.11411 6.82182 21771 ft 378 kts 305°
2026-04-25 14:23 52.12760 6.78480 21502 ft 382 kts 297°
2026-04-25 14:23 52.13831 6.74519 21194 ft 383 kts 291°
2026-04-25 14:23 52.14727 6.70457 20803 ft 380 kts 290°
2026-04-25 14:23 52.15583 6.66462 20435 ft 378 kts 290°
2026-04-25 14:24 52.16447 6.62437 20067 ft 376 kts 290°
2026-04-25 14:24 52.17315 6.58438 19701 ft 374 kts 290°
2026-04-25 14:24 52.18186 6.54455 19340 ft 372 kts 290°
2026-04-25 14:24 52.19057 6.50495 18984 ft 371 kts 290°
2026-04-25 14:25 52.19927 6.46545 18635 ft 369 kts 290°
2026-04-25 14:25 52.20793 6.42612 18259 ft 368 kts 290°
2026-04-25 14:25 52.21654 6.38693 17853 ft 366 kts 290°
2026-04-25 14:25 52.22233 6.36055 17595 ft 365 kts 290°
2026-04-25 14:26 52.23362 6.30903 17075 ft 363 kts 290°
2026-04-25 14:26 52.24205 6.27045 16684 ft 360 kts 290°
2026-04-25 14:26 52.25042 6.23209 16304 ft 357 kts 290°
2026-04-25 14:26 52.25805 6.19363 15919 ft 355 kts 284°
2026-04-25 14:27 52.26175 6.15391 15600 ft 352 kts 278°
2026-04-25 14:27 52.26453 6.11439 15282 ft 349 kts 278°
2026-04-25 14:27 52.26721 6.07509 14958 ft 347 kts 278°
2026-04-25 14:27 52.26989 6.03604 14648 ft 345 kts 278°
2026-04-25 14:28 52.27259 5.99717 14331 ft 344 kts 278°
2026-04-25 14:28 52.27532 5.95851 14022 ft 343 kts 278°
2026-04-25 14:28 52.27807 5.91989 13697 ft 342 kts 278°
2026-04-25 14:28 52.28081 5.88144 13347 ft 341 kts 278°
2026-04-25 14:29 52.28355 5.84298 13005 ft 340 kts 278°
2026-04-25 14:29 52.28628 5.80464 12671 ft 340 kts 278°
2026-04-25 14:29 52.28896 5.76683 12358 ft 339 kts 278°
2026-04-25 14:29 52.29165 5.72861 12028 ft 339 kts 278°
2026-04-25 14:30 52.29434 5.69039 11700 ft 338 kts 278°
2026-04-25 14:30 52.29954 5.61572 11417 ft 319 kts 278°
2026-04-25 14:30 52.30197 5.58050 11314 ft 305 kts 278°
2026-04-25 14:31 52.30163 5.54666 11228 ft 295 kts 264°
2026-04-25 14:31 52.29761 5.51435 11135 ft 285 kts 259°
2026-04-25 14:31 52.29256 5.48352 10905 ft 280 kts 258°
2026-04-25 14:31 52.28733 5.45291 10575 ft 279 kts 258°
2026-04-25 14:32 52.28205 5.42240 10255 ft 279 kts 257°
2026-04-25 14:32 52.27678 5.39194 9931 ft 279 kts 258°
2026-04-25 14:32 52.27154 5.36160 9617 ft 277 kts 258°
2026-04-25 14:32 52.26691 5.33492 9343 ft 275 kts 258°
2026-04-25 14:33 52.26169 5.30486 8974 ft 275 kts 257°
2026-04-25 14:33 52.25601 5.27515 8644 ft 276 kts 250°
2026-04-25 14:33 52.24728 5.24719 8362 ft 276 kts 245°
2026-04-25 14:33 52.23791 5.22001 8061 ft 275 kts 244°
2026-04-25 14:34 52.22850 5.19296 7793 ft 273 kts 244°
2026-04-25 14:34 52.21914 5.16608 7479 ft 273 kts 244°
2026-04-25 14:34 52.20981 5.13917 7209 ft 271 kts 244°
2026-04-25 14:34 52.20061 5.11249 6911 ft 269 kts 244°
2026-04-25 14:35 52.19145 5.08588 6587 ft 269 kts 244°
2026-04-25 14:35 52.18234 5.05936 6269 ft 267 kts 244°
2026-04-25 14:35 52.17325 5.03292 5895 ft 268 kts 244°
2026-04-25 14:35 52.16417 5.00649 5554 ft 267 kts 244°
2026-04-25 14:36 52.15507 4.98005 5251 ft 267 kts 244°
2026-04-25 14:36 52.14614 4.95414 5130 ft 258 kts 244°
2026-04-25 14:36 52.13742 4.92886 4878 ft 255 kts 244°
2026-04-25 14:36 52.12876 4.90374 4577 ft 254 kts 244°
2026-04-25 14:37 52.12014 4.87873 4287 ft 253 kts 245°
2026-04-25 14:37 52.11153 4.85378 3988 ft 253 kts 244°
2026-04-25 14:37 52.10293 4.82892 3705 ft 251 kts 244°
2026-04-25 14:37 52.09437 4.80418 3450 ft 250 kts 244°
2026-04-25 14:38 52.08586 4.77958 3163 ft 250 kts 244°
2026-04-25 14:38 52.07743 4.75526 3075 ft 243 kts 244°
2026-04-25 14:38 52.06925 4.73171 3011 ft 236 kts 244°
2026-04-25 14:38 52.06141 4.70921 2928 ft 227 kts 244°
2026-04-25 14:39 52.05379 4.68735 2840 ft 219 kts 244°
2026-04-25 14:39 52.04656 4.66588 2624 ft 216 kts 244°
2026-04-25 14:39 52.03889 4.64516 2521 ft 213 kts 241°
2026-04-25 14:39 52.03081 4.62517 2371 ft 208 kts 240°
2026-04-25 14:40 52.02300 4.60580 2196 ft 205 kts 241°
2026-04-25 14:40 52.01532 4.58635 1963 ft 205 kts 240°
2026-04-25 14:40 52.00770 4.56737 1685 ft 194 kts 243°
2026-04-25 14:40 52.00065 4.54945 1422 ft 182 kts 239°
2026-04-25 14:41 51.99390 4.53312 1224 ft 166 kts 241°
2026-04-25 14:41 51.98791 4.51799 971 ft 153 kts 241°
2026-04-25 14:41 51.98225 4.50380 776 ft 145 kts 241°
2026-04-25 14:41 51.97672 4.49006 486 ft 143 kts 239°
2026-04-25 14:42 51.97119 4.47635 360 ft 147 kts 240°
2026-04-25 14:42 51.96934 4.47162 283 ft 147 kts 239°
2026-04-25 14:42 51.96033 4.44893 3 ft 138 kts 239°
2026-04-25 14:42 51.95688 4.44022 0 ft 46 kts 237°
2026-04-25 14:43 51.95534 4.43673 -2 ft 26 kts 221°
2026-04-25 14:43 51.95397 4.43509 -1 ft 22 kts 216°
2026-04-25 14:43 51.95302 4.43407 0 ft 11 kts 197°
2026-04-25 14:43 51.95231 4.43448 0 ft 11 kts 147°
2026-04-25 14:44 51.95170 4.43512 0 ft 10 kts 147°
2026-04-25 14:44 51.95119 4.43564 0 ft 6 kts 147°
2026-04-25 14:44 51.95086 4.43556 0 ft 6 kts 228°
2026-04-25 14:44 51.95065 4.43508 0 ft 2 kts 235°
2026-04-25 14:45 51.95056 4.43483 1 ft 3 kts 250°
2026-04-25 14:45 51.95070 4.43450 0 ft 4 kts 321°
2026-04-25 14:45 51.95090 4.43428 0 ft 2 kts 326°
2026-04-25 14:45 51.95092 4.43426 0 ft 0 kts 326°